Flag for Germany Weather past 2 weeks in Frechen, North Rhine-Westphalia, Germany

Now
43 °F

Quite cool.


Feels Like: 41 °F
Forecast: 39 / 46 °F
Wind: 3 mph from South

Location: Noervenich

Current Time: Mar 1, 2015 at 1:58:25 AM

Latest Report: Mar 1, 2015 at 1:20 AM


Visibility: N/A

Pressure: 29.74 "Hg

Humidity: 57%

Dew point: 28 °F

Location of FrechenLocation

Historic Weather in Frechen — Graph

°F

Frechen temperature yesterday

Maximum temperature yesterday: 46 °F (at 1:20 PM)
Minimum temperature yesterday: 30 °F (at 6:20 AM)
Average temperature yesterday: 39 °F

Past Weeks' High & Low Weather Summary

 TemperatureHumidityPressure
High50 °F (Feb 14, 2:20 PM)100% (Feb 17, 6:20 AM)30.74 "Hg (Feb 17, 6:20 AM)
Low27 °F (Feb 19, 7:20 AM)50% (Feb 28, 1:20 PM)29.36 "Hg (Feb 21, 4:20 AM)
Average39 °F81%29.98 "Hg
* Reported Feb 14 12:20 AM — Mar 1 12:20 AM, Frechen, Weather by CustomWeather, © 2015

Note: Actual official high and low records may vary slightly from our data, if they occured in-between our weather recording intervals... More about our weather records

Advertising

Frechen weather history for previous 24 hours

 ConditionsComfort  
Time TempWeatherWind HumidityBarometerVisibility
12:20 AM
Sun, Mar 1
43 °FQuite cool.6 mph53%29.74 "HgN/A
11:20 PM
Sat, Feb 28
43 °FQuite cool.9 mph53%29.77 "HgN/A
10:20 PM43 °FQuite cool.8 mph53%29.83 "HgN/A
9:20 PM43 °FQuite cool.6 mph53%29.89 "HgN/A
8:20 PM41 °FQuite cool.6 mph61%29.92 "HgN/A
7:20 PM41 °FPassing clouds.5 mph61%29.92 "HgN/A
6:20 PM43 °FPassing clouds.3 mph61%29.95 "HgN/A
5:20 PM45 °FPassing clouds.8 mph53%29.95 "HgN/A
4:20 PM46 °FPassing clouds.8 mph50%29.98 "HgN/A
3:20 PM46 °FPassing clouds.7 mph53%30.01 "HgN/A
2:20 PM46 °FBroken clouds.6 mph50%30.04 "HgN/A
1:20 PM46 °FScattered clouds.7 mph50%30.07 "HgN/A
12:20 PM45 °FBroken clouds.7 mph53%30.07 "HgN/A
11:20 AM43 °FPartly sunny.6 mph61%30.09 "HgN/A
10:20 AM39 °FScattered clouds.5 mph70%30.12 "HgN/A
9:20 AM36 °FScattered clouds.2 mph75%30.12 "HgN/A
8:20 AM34 °FPartly sunny.5 mph81%30.12 "HgN/A
7:20 AM32 °FScattered clouds.6 mph87%30.12 "HgN/A
6:20 AM30 °FChilly.6 mph93%30.12 "HgN/A
5:20 AM32 °FChilly.5 mph87%30.12 "HgN/A
4:20 AM32 °FPassing clouds.5 mph87%30.15 "HgN/A
3:20 AM32 °FPassing clouds.3 mph93%30.15 "HgN/A
2:20 AM34 °FPassing clouds.5 mph87%30.15 "HgN/A
1:20 AM36 °FPassing clouds.3 mph81%30.15 "HgN/A
Weather by CustomWeather, © 2015

See weather overviewHow to use our weather pages